GEO-KOMPSAT-2A

Last updated on Thu Nov 21 2024 00:02:20 GMT+0000 (Coordinated Universal Time)

1 43823U 18100A 24324.82040296 -.00000342 00000+0 00000+0 0 9994 2 43823 0.0456 118.8478 0000597 36.6836 327.4308 1.00269869 21873
UTC large
Height (km)
Speed (km/s)
/
Latitude / Longitude
Inclination (degrees)
Orbital Period (minutes)
Azimuth
Elevation
Range (km)
Doppler Factor

Next 0 passes for location: London (51.5072 / 0.1276)

Sorry there are no passes over London.